sat.trackr.live / text

‹ back to catalog

STARLINK-31550

NORAD 59338 · 2024-057U

PAYLOAD ACTIVE UNKNOWN

§ Identity

Operator
Country
US
Launch date
2024-03-25
Launch site
AFETR
Launch vehicle
Mass (kg)
RCS (m²)

Purposes: comms

External: N2YO · Heavens-Above · Gunter

§ Orbital elements

Epoch: 2026-05-25T04:24:00.601056Z

Period
94.27 min
Inclination
43.0026°
Eccentricity
0.0001333
Mean motion
15.27572876 rev/d
Perigee alt
482.2 km
Apogee alt
484.0 km
Semi-major
6,861.2 km
B*
3.4986e-5
RAAN
115.4321°
Arg perigee
271.6760°
Mean anomaly
88.3938°
Rev number
12,153

§ Raw data

STARLINK-315501 59338U 24057U   26145.18334029  .00000701  00000+0  34986-4 0  99952 59338  43.0026 115.4321 0001333 271.6760  88.3938 15.27572876121532

JSON: /api/v1/satellites/59338 · /tle

For live sub-satellite position, see the globe view (requires WebGL).

§ Visibility from observer

Set your observer location to see the next 7 days of passes ≥ 10°. The values pass through the URL so the page stays shareable.

No JS? Fill the form by hand. The geolocation button needs JavaScript.